Orbital elements:
2011 OF45
Epoch 2011 July 18.0 TT = JDT 2455760.5 MPC
M 333.62659 (2000.0) P Q
n 0.03536798 Peri. 27.10722 +0.94130481 +0.25289866
a 9.1917005 Node 316.27557 -0.33724911 +0.73289957
e 0.1288386 Incl. 18.87286 +0.01443194 +0.63158569
P 27.9 H 12.7 G 0.15
From 17 observations 2011 July 26-Aug. 7